Weather History for KTTF - July, 2014

Change the Weather History Date:

Sunday, July 20, 2014

  Actual Average (KDTW) Record (KDTW)
Temperature  
Mean Temperature 68 °F 74 °F  
Max Temperature 80 °F 84 °F 97 °F (1977)
Min Temperature 57 °F 64 °F 48 °F (1971)
Degree Days  
Heating Degree Days 0 0  
Month to date heating degree days 0  
Since 1 June heating degree days 35  
Since 1 July heating degree days 0  
Cooling Degree Days 4 9  
Month to date cooling degree days 177  
Year to date cooling degree days 392  
Since 1 June cooling degree days 344  
Growing Degree Days 18 (Base 50)    
Moisture  
Dew Point 60 °F    
Average Humidity 78    
Maximum Humidity 100    
Minimum Humidity 51    
Precipitation  
Precipitation 0.00 in 0.11 in 2.04 in (1989)
Month to date precipitation 2.09  
Year to date precipitation 18.15  
Snow  
Snow 0.00 in 0.00 in 0.00 in ()
Month to date snowfall 0.0  
Since 1 June snowfall 0.0  
Since 1 July snowfall 0.0  
Snow Depth -    
Sea Level Pressure  
Sea Level Pressure 30.05 in    
Wind  
Wind Speed 1 mph (SSE)    
Max Wind Speed 8 mph    
Max Gust Speed -    
Visibility 6 miles    
Events Fog    
T = Trace of Precipitation, MM = Missing Value Source: NWS Daily Summary

Daily Weather History Graph

Daily Weather History Graph

Search for Another Location

Airport or City:

Trip Planner

Search our weather history database for the weather conditions in past years. The results will help you decide how hot, cold, wet, or windy it might be!

Date:

Astronomy

Jul. 20, 2014 Rise Set
Actual Time 6:15 AM EDT 9:03 PM EDT
Civil Twilight 5:43 AM EDT 9:36 PM EDT
Nautical Twilight 5:01 AM EDT 10:17 PM EDT
Astronomical Twilight 4:14 AM EDT 11:04 PM EDT
Moon 1:28 AM EDT (7/20) 3:44 PM EDT (7/20)
Length of Visible Light 15h 53m
Length of Day
14h 47m
Waning Crescent, 34% of the Moon is Illuminated
Jul 20
Waning Crescent
Jul 26
New
Aug 3
First Quarter
Aug 10
Full
Aug 17
Last Quarter

Hourly Weather History & Observations

Time (EDT) Temp. Heat Index Dew Point Humidity Pressure Visibility Wind Dir Wind Speed Gust Speed Precip Events Conditions
12:12 AM 64.4 °F - 62.6 °F 94% 30.05 in 10.0 mi Calm Calm - N/A   Mostly Cloudy
12:32 AM 64.4 °F - 60.8 °F 88% 30.05 in 10.0 mi Calm Calm - N/A   Mostly Cloudy
12:52 AM 64.4 °F - 62.6 °F 94% 30.04 in 7.0 mi Calm Calm - N/A   Scattered Clouds
1:12 AM 62.6 °F - 60.8 °F 94% 30.04 in 2.5 mi Calm Calm - N/A   Clear
1:32 AM 62.6 °F - 60.8 °F 94% 30.04 in 0.2 mi Calm Calm - N/A Fog Fog
1:53 AM 60.8 °F - 60.8 °F 100% 30.03 in 0.5 mi Calm Calm - N/A Fog Fog
2:13 AM 60.8 °F - 59.0 °F 94% 30.03 in 0.2 mi Calm Calm - N/A Fog Fog
2:33 AM 59.0 °F - 57.2 °F 94% 30.03 in 0.2 mi Calm Calm - N/A Fog Fog
2:53 AM 59.0 °F - 57.2 °F 94% 30.03 in 0.2 mi Calm Calm - N/A Fog Fog
3:13 AM 57.2 °F - 57.2 °F 100% 30.03 in 0.2 mi Calm Calm - N/A Fog Fog
3:33 AM 59.0 °F - 57.2 °F 94% 30.03 in 0.2 mi Calm Calm - N/A Fog Fog
3:53 AM 57.2 °F - 57.2 °F 100% 30.03 in 0.2 mi Calm Calm - N/A Fog Fog
4:13 AM 57.2 °F - 57.2 °F 100% 30.03 in 0.2 mi Calm Calm - N/A Fog Fog
4:33 AM 57.2 °F - 57.2 °F 100% 30.03 in 0.2 mi Calm Calm - N/A Fog Fog
4:54 AM 57.2 °F - 55.4 °F 94% 30.03 in 0.2 mi Calm Calm - N/A Fog Fog
5:14 AM 57.2 °F - 57.2 °F 100% 30.03 in 0.2 mi Calm Calm - N/A Fog Fog
5:34 AM 57.2 °F - 55.4 °F 94% 30.03 in 0.2 mi Calm Calm - N/A Fog Fog
5:54 AM 57.2 °F - 55.4 °F 94% 30.04 in 0.2 mi Calm Calm - N/A Fog Fog
6:14 AM 57.2 °F - 55.4 °F 94% 30.05 in 0.2 mi Calm Calm - N/A Fog Fog
6:34 AM 57.2 °F - 55.4 °F 94% 30.05 in 0.2 mi Calm Calm - N/A Fog Fog
6:54 AM 57.2 °F - 57.2 °F 100% 30.05 in 0.2 mi North 4.6 mph - N/A Fog Fog
7:14 AM 57.2 °F - 57.2 °F 100% 30.06 in 0.2 mi Calm Calm - N/A Fog Fog
7:34 AM 59.0 °F - 57.2 °F 94% 30.07 in 0.2 mi Calm Calm - N/A Fog Fog
7:54 AM 60.8 °F - 59.0 °F 94% 30.07 in 0.2 mi Calm Calm - N/A Fog Fog
8:14 AM 60.8 °F - 59.0 °F 94% 30.07 in 0.2 mi Calm Calm - N/A Fog Fog
8:30 AM 60.8 °F - 60.8 °F 100% 30.08 in 0.2 mi Calm Calm - N/A Fog Fog
8:50 AM 62.6 °F - 62.6 °F 100% 30.08 in 0.5 mi Calm Calm - N/A Fog Fog
9:10 AM 64.4 °F - 62.6 °F 94% 30.08 in 2.0 mi Calm Calm - N/A   Overcast
9:30 AM 66.2 °F - 64.4 °F 94% 30.08 in 7.0 mi Calm Calm - N/A   Scattered Clouds
9:50 AM 66.2 °F - 66.2 °F 100% 30.08 in 10.0 mi Calm Calm - N/A   Clear
10:30 AM 69.8 °F - 66.2 °F 88% 30.08 in 10.0 mi Calm Calm - N/A   Clear
10:50 AM 69.8 °F - 64.4 °F 83% 30.08 in 10.0 mi ENE 3.5 mph - N/A   Clear
11:11 AM 71.6 °F - 64.4 °F 78% 30.08 in 10.0 mi Calm Calm - N/A   Clear
11:31 AM 71.6 °F - 62.6 °F 73% 30.08 in 10.0 mi Calm Calm - N/A   Clear
11:51 AM 75.2 °F - 62.6 °F 65% 30.08 in 10.0 mi Calm Calm - N/A   Clear
12:11 PM 77.0 °F - 60.8 °F 57% 30.08 in 10.0 mi Calm Calm - N/A   Clear
12:31 PM 77.0 °F - 60.8 °F 57% 30.07 in 10.0 mi Calm Calm - N/A   Clear
12:51 PM 77.0 °F - 59.0 °F 54% 30.07 in 10.0 mi Calm Calm - N/A   Scattered Clouds
1:11 PM 78.8 °F - 62.6 °F 57% 30.07 in 10.0 mi SE 6.9 mph - N/A   Clear
1:31 PM 75.2 °F - 62.6 °F 65% 30.07 in 10.0 mi SE 6.9 mph - N/A   Mostly Cloudy
1:52 PM 75.2 °F - 62.6 °F 65% 30.06 in 10.0 mi South 6.9 mph - N/A   Scattered Clouds
2:12 PM 78.8 °F - 62.6 °F 57% 30.06 in 10.0 mi South 6.9 mph - N/A   Clear
2:32 PM 78.8 °F - 62.6 °F 57% 30.06 in 10.0 mi SSE 6.9 mph - N/A   Clear
2:52 PM 78.8 °F - 62.6 °F 57% 30.05 in 10.0 mi South 4.6 mph - N/A   Clear
3:12 PM 78.8 °F - 62.6 °F 57% 30.05 in 10.0 mi SSE 4.6 mph - N/A   Clear
3:32 PM 78.8 °F - 60.8 °F 54% 30.05 in 10.0 mi SSW 4.6 mph - N/A   Clear
3:52 PM 78.8 °F - 60.8 °F 54% 30.04 in 10.0 mi ESE 4.6 mph - N/A   Clear
4:13 PM 78.8 °F - 60.8 °F 54% 30.04 in 10.0 mi SE 4.6 mph - N/A   Clear
4:33 PM 80.6 °F 81.5 °F 60.8 °F 51% 30.04 in 10.0 mi SE 5.8 mph - N/A   Clear
4:53 PM 78.8 °F - 60.8 °F 54% 30.04 in 10.0 mi Calm Calm - N/A   Clear
5:13 PM 78.8 °F - 60.8 °F 54% 30.04 in 10.0 mi South 5.8 mph - N/A   Clear
5:33 PM 78.8 °F - 60.8 °F 54% 30.04 in 10.0 mi SSE 8.1 mph - N/A   Clear
5:53 PM 78.8 °F - 60.8 °F 54% 30.04 in 10.0 mi SSE 6.9 mph - N/A   Clear
6:13 PM 78.8 °F - 60.8 °F 54% 30.03 in 10.0 mi SSE 8.1 mph - N/A   Clear
6:33 PM 78.8 °F - 60.8 °F 54% 30.03 in 10.0 mi SE 6.9 mph - N/A   Clear
6:53 PM 77.0 °F - 60.8 °F 57% 30.03 in 10.0 mi SE 8.1 mph - N/A   Clear
7:13 PM 75.2 °F - 60.8 °F 61% 30.04 in 10.0 mi SE 5.8 mph - N/A   Clear
7:34 PM 75.2 °F - 60.8 °F 61% 30.04 in 10.0 mi SSE 8.1 mph - N/A   Clear
7:54 PM 75.2 °F - 60.8 °F 61% 30.04 in 10.0 mi SSE 5.8 mph - N/A   Clear
8:14 PM 73.4 °F - 60.8 °F 65% 30.04 in 10.0 mi SE 3.5 mph - N/A   Clear
8:34 PM 73.4 °F - 60.8 °F 65% 30.04 in 10.0 mi SE 3.5 mph - N/A   Clear
8:54 PM 71.6 °F - 60.8 °F 69% 30.04 in 10.0 mi SE 4.6 mph - N/A   Clear
9:14 PM 71.6 °F - 60.8 °F 69% 30.05 in 10.0 mi SE 3.5 mph - N/A   Clear
9:34 PM 71.6 °F - 60.8 °F 69% 30.05 in 10.0 mi Calm Calm - N/A   Clear
9:54 PM 69.8 °F - 60.8 °F 73% 30.06 in 10.0 mi Calm Calm - N/A   Clear
10:10 PM 69.8 °F - 60.8 °F 73% 30.06 in 10.0 mi Calm Calm - N/A   Clear
10:30 PM 66.2 °F - 60.8 °F 83% 30.07 in 10.0 mi Calm Calm - N/A   Clear
10:50 PM 64.4 °F - 60.8 °F 88% 30.07 in 10.0 mi Calm Calm - N/A   Clear
11:10 PM 64.4 °F - 60.8 °F 88% 30.07 in 10.0 mi Calm Calm - N/A   Clear
11:30 PM 64.4 °F - 60.8 °F 88% 30.06 in 10.0 mi Calm Calm - N/A   Clear
11:50 PM 64.4 °F - 60.8 °F 88% 30.07 in 10.0 mi Calm Calm - N/A   Clear